Powrót do katalogu

STARLINK-11362

AktywnyŁącznośćVLEO
NORAD 61535·PAYLOAD·🇺🇸 United States

Wystrzelony Oct 15, 2024 z Vandenberg Space Force Base

Loading…

Następne Przeloty (najbliższe 24 godziny)

TLE

ŚwieżeSource: CelesTrak SupGP

Epoka: Sep 15, 2026, 03:18 UTC

1 61535C 24184D   26258.13798611 -.00056612  00000+0 -46627-3 0  2585
2 61535  53.1576  22.2112 0001008  83.7775 298.6437 15.69741138    10

Śledź STARLINK-11362 w czasie rzeczywistym z AllMySat

Download on the App Store